Location: Quaker Farms
(41.4276°N, 73.1557°W)
Time: 23:32:24
(UTC+00:00)

Vanguard 1 - Pass Details

Date: 15 June 2021
Orbit: 651 x 3832 km, 34.2° (Epoch: 26 July)

Event Time Altitude Azimuth Distance (km) Brightness Sun altitude
Rises 02:44:48 0° 231° (SW) 7,966 14.6 -18.8°
Reaches altitude 10° 02:50:39 10° 227° (SW) 6,877 14.2 -19.3°
Maximum altitude 03:11:19 51° 160° (SSE) 3,491 12.4 -21.1°
Drops below altitude 10° 03:24:19 10° 90° (E) 4,524 13.2 -22.1°
Sets 03:27:15 0° 85° (E) 5,179 13.6 -22.3°
